GW2684 Weather Reports


time (UTC)temp
C
wind
direction
speed
KPH
gust
KPH
rain 1hr
cm
rain 24hr
cm
rain mn
cm
humidity
%
barometer
mb
20260510203533 28 223 8.0 17.7 0.00 0.15 0.03 74 1015.2
20260510203044 28 263 6.4 16.1 0.00 0.15 0.03 75 1015.3
20260510202535 27 266 8.0 17.7 0.00 0.15 0.03 76 1015.3
20260510202037 27 249 11.3 17.7 0.00 0.15 0.03 77 1015.3
20260510201546 27 287 8.0 12.9 0.00 0.15 0.03 79 1015.4
20260510201032 27 261 6.4 12.9 0.00 0.15 0.03 79 1015.5
20260510200533 27 276 6.4 12.9 0.00 0.15 0.03 78 1015.4
20260510200047 27 209 6.4 12.9 0.00 0.15 0.03 78 1015.5
20260510195534 27 238 6.4 12.9 0.00 0.15 0.03 77 1015.5
20260510195035 27 242 3.2 9.7 0.00 0.15 0.03 76 1015.5
20260510194544 27 223 3.2 11.3 0.00 0.15 0.03 73 1015.4
20260510194036 27 249 3.2 11.3 0.00 0.15 0.03 73 1015.5
20260510193533 28 207 3.2 9.7 0.00 0.15 0.03 72 1015.4
20260510193052 28 205 1.6 8.0 0.00 0.15 0.03 69 1015.4
20260510192535 28 340 3.2 8.0 0.00 0.15 0.03 69 1015.4
20260510192035 28 319 4.8 11.3 0.00 0.15 0.03 68 1015.3
20260510191548 28 172 3.2 11.3 0.00 0.15 0.03 71 1015.4
20260510191036 27 194 4.8 11.3 0.00 0.15 0.03 71 1015.5
20260510190535 28 250 1.6 6.4 0.00 0.15 0.03 70 1015.6
20260510190052 27 5 1.6 8.0 0.00 0.15 0.03 70 1015.6
20260510185535 27 72 3.2 8.0 0.00 0.15 0.03 70 1015.8
20260510185035 27 113 3.2 8.0 0.00 0.15 0.03 69 1015.8
20260510184611 27 48 1.6 11.3 0.00 0.15 0.03 70 1015.9
20260510184036 27 139 3.2 11.3 0.00 0.15 0.03 71 1016.0
20260510183536 27 176 1.6 11.3 0.00 0.15 0.03 70 1016.1
20260510183046 27 188 0.0 4.8 0.00 0.15 0.03 72 1016.2
20260510182536 27 0 0.0 6.4 0.00 0.15 0.03 71 1016.2
20260510182036 27 0 0.0 9.7 0.00 0.15 0.03 70 1016.2
20260510181555 27 217 3.2 9.7 0.00 0.15 0.03 70 1016.2
20260510181035 27 101 3.2 8.0 0.00 0.15 0.03 70 1016.3
20260510180535 27 192 1.6 11.3 0.00 0.15 0.03 72 1016.4
20260510180105 27 321 3.2 11.3 0.00 0.15 0.03 72 1016.5
20260510175534 27 0 1.6 11.3 0.00 0.15 0.03 71 1016.5
20260510175036 27 257 1.6 9.7 0.00 0.15 0.03 70 1016.5
20260510174547 27 252 3.2 11.3 0.00 0.15 0.03 71 1016.5
20260510174036 26 296 4.8 12.9 0.00 0.15 0.03 72 1016.5
20260510173538 26 0 1.6 12.9 0.00 0.15 0.03 72 1016.7
20260510173048 26 328 3.2 9.7 0.00 0.15 0.03 73 1016.7
20260510172536 26 269 4.8 9.7 0.00 0.15 0.03 72 1016.8
20260510172036 26 0 3.2 12.9 0.00 0.15 0.03 74 1017.0
20260510171602 26 261 4.8 12.9 0.00 0.15 0.03 75 1016.9
20260510171034 26 248 4.8 12.9 0.00 0.15 0.03 75 1017.0
20260510170532 26 286 4.8 11.3 0.00 0.15 0.03 76 1017.0
20260510170047 26 38 3.2 11.3 0.00 0.15 0.03 76 1017.1
20260510165533 26 63 0.0 8.0 0.00 0.64 0.03 74 1017.1
20260510165033 26 105 3.2 8.0 0.00 0.64 0.03 74 1017.1
20260510164549 26 283 3.2 9.7 0.00 0.64 0.03 72 1017.1
20260510164032 26 61 6.4 9.7 0.00 0.64 0.03 75 1017.1
20260510163533 26 5 3.2 14.5 0.00 0.64 0.03 75 1017.1
20260510163042 26 360 4.8 14.5 0.00 0.64 0.03 77 1017.0
20260510162539 26 91 3.2 11.3 0.00 0.64 0.03 78 1016.8
20260510162033 26 51 4.8 11.3 0.00 0.64 0.03 78 1016.8
20260510161547 25 0 1.6 9.7 0.00 0.64 0.03 78 1017.0
20260510161033 25 351 1.6 6.4 0.00 0.64 0.03 80 1017.0
20260510160534 25 0 1.6 8.0 0.00 0.64 0.03 79 1017.1
20260510160052 25 96 0.0 9.7 0.00 0.64 0.03 79 1017.0
20260510155534 25 72 3.2 9.7 0.00 1.14 0.03 81 1017.0
20260510155033 25 51 3.2 6.4 0.00 1.14 0.03 79 1016.8
20260510154602 25 0 1.6 8.0 0.00 1.14 0.03 82 1016.8
20260510154033 25 348 1.6 8.0 0.00 1.14 0.03 82 1016.8
20260510153532 25 0 3.2 8.0 0.00 1.14 0.03 84 1016.8
20260510153056 25 315 0.0 6.4 0.00 1.14 0.03 82 1016.9
20260510152533 24 54 0.0 9.7 0.00 1.14 0.03 84 1017.0
20260510152032 24 0 1.6 9.7 0.00 1.14 0.03 85 1017.0
20260510151542 24 73 3.2 9.7 0.00 1.14 0.03 86 1017.1
20260510151035 23 0 1.6 8.0 0.00 1.14 0.03 85 1017.0
20260510150536 23 74 3.2 8.0 0.00 1.14 0.03 86 1017.1
20260510150106 23 40 1.6 6.4 0.00 1.14 0.03 88 1017.1
20260510145535 23 5 1.6 6.4 0.00 2.44 0.03 91 1017.2
20260510145033 23 355 1.6 6.4 0.00 2.44 0.03 93 1017.1
20260510144608 22 17 1.6 6.4 0.00 2.44 0.03 94 1017.2
20260510144036 22 0 1.6 8.0 0.00 2.44 0.03 96 1017.1
20260510143535 21 20 3.2 8.0 0.00 2.44 0.03 97 1017.2
20260510143046 21 28 3.2 8.0 0.00 2.44 0.03 97 1017.4
20260510142537 21 333 0.0 6.4 0.00 2.44 0.03 99 1017.4
20260510142033 21 86 1.6 6.4 0.00 2.44 0.03 99 1017.5
20260510141548 21 0 0.0 6.4 0.00 2.44 0.03 99 1017.4
20260510141032 21 0 0.0 6.4 0.00 2.44 0.03 99 1017.3
20260510140534 21 0 1.6 6.4 0.00 2.44 0.03 100 1017.3
20260510140044 20 113 1.6 4.8 0.00 2.44 0.03 100 1017.1
20260510135535 20 0 0.0 3.2 0.00 2.46 0.03 100 1017.0
20260510135037 20 0 0.0 3.2 0.00 2.46 0.03 99 1017.0
20260510134550 20 133 0.0 3.2 0.00 2.46 0.03 100 1016.9
20260510134035 20 0 0.0 3.2 0.00 2.46 0.03 100 1016.9
20260510133535 20 19 0.0 3.2 0.00 2.46 0.03 100 1016.9
20260510133047 19 0 0.0 3.2 0.00 2.46 0.03 100 1016.9
20260510132533 19 0 0.0 4.8 0.00 2.46 0.03 99 1016.8
20260510132036 19 0 1.6 4.8 0.00 2.46 0.03 99 1016.9
20260510131541 19 0 1.6 6.4 0.00 2.46 0.03 99 1016.8
20260510131032 19 28 1.6 6.4 0.00 2.46 0.03 99 1016.7
20260510130536 19 20 1.6 6.4 0.00 2.46 0.03 100 1016.8
20260510130047 19 22 0.0 4.8 0.00 2.46 0.03 100 1016.8
20260510125533 18 23 1.6 6.4 0.00 2.67 0.03 99 1016.7
20260510125035 18 0 0.0 6.4 0.00 2.67 0.03 100 1016.7
20260510124548 18 351 1.6 6.4 0.00 2.67 0.03 100 1016.7
20260510124036 18 337 1.6 6.4 0.00 2.67 0.03 100 1016.6
20260510123532 18 9 0.0 4.8 0.00 2.67 0.03 100 1016.5
20260510123053 18 15 1.6 6.4 0.00 2.67 0.03 99 1016.3
20260510122536 18 83 0.0 6.4 0.00 2.67 0.03 99 1016.4
20260510122035 18 0 3.2 6.4 0.00 2.67 0.03 99 1016.3
20260510121546 18 0 0.0 8.0 0.00 2.67 0.03 100 1016.1
20260510121039 18 93 1.6 8.0 0.00 2.67 0.03 99 1016.1
20260510120533 18 71 1.6 4.8 0.00 2.67 0.03 99 1015.8
20260510120040 18 0 0.0 0.0 0.00 2.67 0.03 99 1015.8
20260510115532 18 0 0.0 0.0 0.00 2.72 0.03 99 1015.8
20260510115035 18 0 0.0 0.0 0.00 2.72 0.03 100 1015.6
20260510114551 18 0 0.0 0.0 0.00 2.72 0.03 100 1015.5
20260510114032 17 0 0.0 0.0 0.00 2.72 0.03 99 1015.4
20260510113532 17 0 0.0 0.0 0.00 2.72 0.03 99 1015.3
20260510113044 17 0 0.0 0.0 0.00 2.72 0.03 99 1015.4
20260510112533 17 0 0.0 1.6 0.00 2.72 0.03 99 1015.3
20260510112035 17 0 0.0 1.6 0.00 2.72 0.03 99 1015.3
20260510111547 17 0 0.0 1.6 0.00 2.72 0.03 99 1015.3
20260510111038 17 0 0.0 0.0 0.00 2.72 0.03 99 1015.2
20260510110536 17 0 0.0 0.0 0.00 2.72 0.03 99 1015.1
20260510110051 17 0 0.0 0.0 0.00 2.72 0.03 99 1014.9
20260510105537 17 0 0.0 0.0 0.00 2.72 0.03 99 1014.9
20260510105037 17 0 0.0 3.2 0.00 2.72 0.03 99 1014.8
20260510104554 17 0 0.0 3.2 0.00 2.72 0.03 99 1014.8
20260510104036 18 0 0.0 3.2 0.00 2.72 0.03 99 1014.8
20260510103533 18 0 0.0 0.0 0.00 2.72 0.03 99 1014.7
20260510103045 18 0 0.0 4.8 0.00 2.72 0.03 99 1014.6
20260510102533 18 0 0.0 4.8 0.00 2.72 0.03 99 1014.6
20260510102032 18 355 0.0 3.2 0.00 2.72 0.03 99 1014.5
20260510101550 18 0 0.0 3.2 0.00 2.72 0.03 99 1014.5
20260510101033 18 0 0.0 3.2 0.00 2.72 0.03 99 1014.6
20260510100532 18 103 0.0 0.0 0.00 2.72 0.03 99 1014.5
20260510100052 18 0 0.0 0.0 0.00 2.72 0.03 99 1014.4
20260510095533 18 0 0.0 0.0 0.00 2.72 0.03 99 1014.3
20260510095035 18 0 0.0 3.2 0.00 2.72 0.03 99 1014.2
20260510094557 18 0 0.0 3.2 0.00 2.72 0.03 99 1014.1
20260510094032 18 0 0.0 0.0 0.00 2.72 0.03 99 1013.8
20260510093535 18 0 0.0 0.0 0.00 2.72 0.03 99 1013.8
20260510093051 18 0 0.0 0.0 0.00 2.72 0.03 99 1013.7
20260510092536 18 0 0.0 0.0 0.00 2.72 0.03 99 1013.8
20260510092036 18 0 0.0 0.0 0.00 2.72 0.03 99 1013.7
20260510091544 18 0 0.0 1.6 0.00 2.72 0.03 99 1013.8
20260510091032 18 0 0.0 1.6 0.00 2.72 0.03 99 1013.9
20260510090533 18 0 0.0 3.2 0.00 2.72 0.03 99 1013.7
20260510090045 18 0 0.0 3.2 0.00 2.72 0.03 99 1013.6
20260510085532 18 0 0.0 3.2 0.00 2.72 0.03 99 1013.6
20260510085033 18 17 0.0 0.0 0.00 2.72 0.03 99 1013.7
20260510084559 18 0 0.0 1.6 0.00 2.72 0.03 99 1013.6
20260510084033 18 0 0.0 3.2 0.00 2.72 0.03 99 1013.6
20260510083536 18 0 0.0 3.2 0.00 2.72 0.03 99 1013.6
20260510083111 18 0 0.0 4.8 0.00 2.72 0.03 99 1013.6
20260510082536 18 355 0.0 6.4 0.00 2.72 0.03 99 1013.4
20260510082035 18 355 1.6 6.4 0.00 2.72 0.03 99 1013.4
20260510081605 18 0 0.0 0.0 0.00 2.72 0.03 99 1013.3
20260510081036 18 0 0.0 0.0 0.00 2.72 0.03 99 1013.2
20260510080536 18 0 0.0 0.0 0.00 2.72 0.03 99 1013.0
20260510080044 18 0 0.0 0.0 0.00 2.72 0.03 99 1012.9
20260510075535 18 0 0.0 0.0 0.00 2.74 0.03 99 1012.9
20260510075035 18 0 0.0 0.0 0.00 2.74 0.03 99 1012.9
20260510074545 18 0 0.0 0.0 0.00 2.74 0.03 99 1012.9
20260510074036 18 0 0.0 0.0 0.00 2.74 0.03 99 1012.9
20260510073535 18 0 0.0 0.0 0.00 2.74 0.03 99 1012.8
20260510073051 18 0 0.0 0.0 0.00 2.74 0.03 99 1013.0
20260510072535 18 0 0.0 0.0 0.00 2.74 0.03 99 1012.9
20260510072038 18 0 0.0 0.0 0.00 2.74 0.03 99 1012.7
20260510071550 18 0 0.0 0.0 0.00 2.74 0.03 99 1012.8
20260510071036 18 0 0.0 0.0 0.00 2.74 0.03 99 1012.8
20260510070537 18 0 0.0 0.0 0.00 2.74 0.03 99 1012.7
20260510070049 18 0 0.0 0.0 0.00 2.74 0.03 99 1012.5
20260510065534 18 0 0.0 0.0 0.00 2.74 0.03 99 1012.7
20260510065037 18 0 0.0 3.2 0.00 2.74 0.03 99 1012.7
20260510064549 18 0 0.0 3.2 0.00 2.74 0.03 99 1012.6
20260510064034 18 96 0.0 4.8 0.00 2.74 0.03 99 1012.7
20260510063534 18 107 0.0 4.8 0.00 2.74 0.03 99 1012.8
20260510063052 18 117 0.0 4.8 0.00 2.74 0.03 99 1012.8
20260510062534 18 0 0.0 3.2 0.00 2.74 0.03 99 1012.8
20260510062035 18 0 0.0 1.6 0.00 2.74 0.03 99 1012.9
20260510061556 18 0 0.0 0.0 0.00 2.74 0.03 99 1013.0
20260510061034 18 0 0.0 0.0 0.03 2.74 0.03 99 1013.2
20260510060534 18 0 0.0 0.0 0.03 2.74 0.03 99 1013.4
20260510060047 18 0 0.0 0.0 0.03 2.74 0.03 99 1013.5
20260510055533 18 0 0.0 0.0 0.03 2.74 0.03 98 1013.5
20260510055034 18 0 0.0 0.0 0.03 2.74 0.03 98 1013.5
20260510054542 18 0 0.0 0.0 0.03 2.74 0.03 98 1013.4
20260510054034 18 0 0.0 0.0 0.03 2.74 0.03 98 1013.5
20260510053536 18 0 0.0 0.0 0.03 2.74 0.03 98 1013.6
20260510053049 19 0 0.0 0.0 0.03 2.74 0.03 98 1013.7
20260510052534 19 0 0.0 0.0 0.03 2.74 0.03 98 1013.8
20260510052036 19 0 0.0 0.0 0.03 2.74 0.03 98 1013.7
20260510051547 19 0 0.0 0.0 0.03 2.74 0.03 98 1013.8
20260510051034 19 0 0.0 0.0 0.00 2.72 0.00 98 1014.0
20260510050537 19 0 0.0 0.0 0.00 2.72 0.00 98 1013.8
20260510050051 19 0 0.0 0.0 0.00 2.72 0.00 98 1013.8
20260510045533 19 0 0.0 0.0 0.00 2.77 2.72 98 1013.8
20260510045034 19 0 0.0 1.6 0.00 2.77 2.72 98 1013.6
20260510044549 19 0 0.0 6.4 0.00 2.77 2.72 98 1013.5
20260510044034 19 0 0.0 6.4 0.00 2.77 2.72 98 1013.2
20260510043535 19 107 1.6 6.4 0.00 2.77 2.72 98 1013.2
20260510043045 19 105 1.6 6.4 0.00 2.77 2.72 98 1013.4
20260510042535 20 0 0.0 0.0 0.00 2.77 2.72 98 1013.9
20260510042038 20 0 0.0 0.0 0.00 2.77 2.72 98 1014.0
20260510041548 20 0 0.0 0.0 0.00 2.77 2.72 98 1014.2
20260510041036 20 0 0.0 0.0 0.00 2.77 2.72 98 1014.1
20260510040536 20 0 0.0 0.0 0.00 2.77 2.72 98 1014.0
20260510040046 20 0 0.0 0.0 0.00 2.77 2.72 98 1014.1
20260510035536 20 0 0.0 0.0 0.00 2.77 2.72 98 1014.3
20260510035036 20 0 0.0 0.0 0.00 2.77 2.72 98 1014.1
20260510034545 20 0 0.0 0.0 0.00 2.77 2.72 98 1014.2
20260510034036 20 0 0.0 0.0 0.00 2.77 2.72 98 1014.2
20260510033534 20 0 0.0 0.0 0.00 2.77 2.72 98 1014.3
20260510033046 20 0 0.0 0.0 0.00 2.77 2.72 98 1014.4
20260510032535 20 0 0.0 0.0 0.00 2.77 2.72 98 1014.2
20260510032037 20 0 0.0 0.0 0.00 2.77 2.72 98 1014.1
20260510031558 20 0 0.0 0.0 0.00 2.77 2.72 98 1014.0
20260510031035 20 0 0.0 0.0 0.00 2.77 2.72 98 1013.9
20260510030535 20 0 0.0 0.0 0.00 2.77 2.72 98 1013.8
20260510030048 20 0 0.0 0.0 0.00 2.77 2.72 98 1013.8
20260510025535 20 0 0.0 0.0 0.03 2.79 2.72 98 1013.8
20260510025035 20 0 0.0 0.0 0.03 2.79 2.72 98 1013.8
20260510024548 20 0 0.0 0.0 0.03 2.79 2.72 98 1013.6
20260510024035 20 0 0.0 4.8 0.03 2.79 2.72 98 1013.6
20260510023535 20 0 0.0 4.8 0.03 2.79 2.72 98 1013.5
20260510023047 20 74 1.6 4.8 0.03 2.79 2.72 98 1013.4
20260510022538 20 0 0.0 4.8 0.03 2.79 2.72 98 1013.5
20260510022038 20 0 0.0 0.0 0.03 2.79 2.72 98 1013.3
20260510021549 20 0 0.0 4.8 0.03 2.79 2.72 98 1013.5
20260510021032 20 0 0.0 4.8 0.03 2.79 2.72 98 1013.5
20260510020536 20 0 0.0 4.8 0.03 2.79 2.72 98 1013.7
20260510020047 20 0 0.0 4.8 0.03 2.79 2.72 98 1013.6
20260510015536 20 51 1.6 6.4 0.00 2.90 2.67 98 1013.5
20260510015037 20 0 0.0 6.4 0.00 2.90 2.67 98 1013.3
20260510014547 20 92 1.6 6.4 0.00 2.90 2.67 98 1013.3
20260510014036 20 122 1.6 6.4 0.00 2.90 2.67 98 1013.2
20260510013537 20 109 0.0 4.8 0.00 2.90 2.67 98 1013.3
20260510013058 20 0 0.0 4.8 0.00 2.90 2.67 98 1013.6
20260510012538 20 0 0.0 4.8 0.00 2.90 2.67 98 1013.5
20260510012038 20 96 0.0 3.2 0.00 2.90 2.67 98 1013.5
20260510011546 20 123 1.6 3.2 0.03 2.90 2.67 98 1013.4
20260510011037 20 124 0.0 0.0 0.03 2.90 2.67 98 1013.6
20260510010536 20 0 0.0 0.0 0.03 2.90 2.67 97 1013.7
20260510010044 20 0 0.0 0.0 0.03 2.90 2.67 97 1013.7
20260510005536 20 0 0.0 0.0 0.03 2.92 2.67 97 1013.7
20260510005035 20 0 0.0 3.2 0.03 2.92 2.67 97 1013.9
20260510004545 20 0 0.0 4.8 0.03 2.92 2.67 97 1013.9
20260510004036 20 40 0.0 6.4 0.03 2.92 2.67 97 1013.8
20260510003536 20 0 0.0 6.4 0.03 2.92 2.67 97 1013.8
20260510003050 20 337 3.2 8.0 0.05 2.92 2.67 97 1013.5
20260510002538 20 323 3.2 9.7 0.05 2.92 2.67 97 1013.4
20260510002035 20 355 4.8 9.7 0.05 2.92 2.67 97 1013.0
20260510001547 20 29 3.2 6.4 0.03 2.90 2.64 97 1012.7
20260510001035 20 105 1.6 6.4 0.05 2.90 2.64 97 1012.7
20260510000536 20 0 1.6 6.4 0.05 2.90 2.64 97 1012.8
20260510000048 20 46 3.2 14.5 0.05 2.90 2.64 96 1012.9
20260509235535 20 5 4.8 14.5 0.05 2.95 2.64 96 1012.8
20260509235033 20 352 4.8 17.7 0.05 2.95 2.64 97 1012.8
20260509234545 20 121 8.0 17.7 0.05 2.95 2.64 97 1011.8
20260509234035 20 148 8.0 17.7 0.08 2.95 2.64 97 1011.6
20260509233534 20 144 8.0 16.1 0.08 2.95 2.64 97 1011.7
20260509233046 20 127 6.4 12.9 0.05 2.92 2.64 97 1011.8
20260509232536 20 134 3.2 9.7 0.05 2.92 2.64 96 1012.1
20260509232036 20 130 3.2 6.4 0.05 2.92 2.64 96 1012.2
20260509231555 20 139 3.2 6.4 0.05 2.92 2.64 96 1012.3
20260509231036 20 103 1.6 6.4 0.03 2.90 2.62 96 1012.4
20260509230536 20 111 3.2 8.0 0.03 2.90 2.62 95 1012.5
20260509230047 20 105 1.6 8.0 0.03 2.90 2.62 96 1012.6
20260509225536 20 101 1.6 4.8 0.03 2.95 2.62 95 1012.6
20260509225036 20 0 0.0 3.2 0.03 2.95 2.62 95 1013.0
20260509224547 20 0 0.0 1.6 0.03 2.95 2.62 95 1013.0
20260509224035 20 0 0.0 1.6 0.00 2.92 2.59 95 1012.9
20260509223535 20 0 0.0 3.2 0.00 2.92 2.59 95 1013.1
20260509223046 20 0 0.0 4.8 0.00 2.92 2.59 95 1012.9
20260509222535 20 0 1.6 4.8 0.00 2.92 2.59 95 1012.8
20260509222036 20 93 3.2 4.8 0.00 2.92 2.59 94 1012.5
20260509221545 20 39 0.0 4.8 0.00 2.92 2.59 94 1012.6
20260509221036 20 0 0.0 4.8 0.00 2.92 2.59 94 1012.5
20260509220537 20 39 1.6 6.4 0.00 2.92 2.59 94 1012.3
20260509220051 21 39 1.6 9.7 0.00 2.92 2.59 94 1012.4
20260509215536 21 32 3.2 9.7 0.00 3.05 2.59 94 1012.6
20260509215036 21 360 0.0 8.0 0.00 3.05 2.59 94 1012.5
20260509214542 21 334 4.8 8.0 0.00 3.05 2.59 94 1012.8
20260509214036 21 332 1.6 6.4 0.00 3.05 2.59 94 1012.7
20260509213536 21 352 3.2 8.0 0.00 3.05 2.59 94 1012.6
20260509213051 21 55 3.2 9.7 0.00 3.05 2.59 93 1012.3
20260509212535 21 63 3.2 9.7 0.00 3.05 2.59 93 1012.2
20260509212032 21 123 3.2 8.0 0.00 3.05 2.59 93 1011.9
20260509211549 21 44 1.6 4.8 0.00 3.05 2.59 93 1012.3
20260509211036 21 215 1.6 4.8 0.00 3.05 2.59 92 1012.2
20260509210535 21 183 1.6 6.4 0.00 3.05 2.59 92 1012.5
20260509210053 21 132 0.0 12.9 0.00 3.05 2.59 92 1012.4
20260509205535 21 35 3.2 12.9 0.00 3.05 2.59 91 1012.7
20260509205032 21 333 3.2 12.9 0.00 3.05 2.59 90 1012.7
20260509204554 21 298 3.2 6.4 0.00 3.05 2.59 90 1012.7
20260509204036 21 271 1.6 6.4 0.00 3.05 2.59 90 1012.3